This is the latest recevied weather packets stored in our database for station/object IU2PLZ-10. If no packets are shown the sender has not sent any weather packets the latest 10 day(s).
| Time | Temp. | Humidity | Pressure | Rain* | Wind** | Luminosity | Snow |
|---|---|---|---|---|---|---|---|
| 1778052798 | 23.33° C | 43% | 964.1 hPa | - | - | - | - |
| 1778051898 | 22.22° C | 44% | 963.6 hPa | - | - | - | - |
| 1778050998 | 22.22° C | 45% | 964.3 hPa | - | - | - | - |
| 1778050098 | 21.67° C | 45% | 964.5 hPa | - | - | - | - |
| 1778049197 | 21.67° C | 45% | 964.4 hPa | - | - | - | - |
| 1778048297 | 21.67° C | 45% | 963.6 hPa | - | - | - | - |
| 1778047397 | 22.22° C | 47% | 964.3 hPa | - | - | - | - |
| 1778046497 | 22.78° C | 48% | 964.4 hPa | - | - | - | - |
| 1778045597 | 21.67° C | 53% | 963.6 hPa | - | - | - | - |
| 1778044697 | 20° C | 51% | 964.1 hPa | - | - | - | - |
| 1778043796 | 19.44° C | 52% | 964.1 hPa | - | - | - | - |
| 1778042896 | 18.89° C | 52% | 963.9 hPa | - | - | - | - |
| 1778041996 | 18.89° C | 54% | 964.1 hPa | - | - | - | - |
| 1778041096 | 18.33° C | 55% | 963.6 hPa | - | - | - | - |
| 1778040196 | 18.33° C | 57% | 964.2 hPa | - | - | - | - |
| 1778039295 | 18.33° C | 56% | 964.3 hPa | - | - | - | - |
| 1778038395 | 18.33° C | 56% | 964.1 hPa | - | - | - | - |
| 1778037495 | 17.78° C | 56% | 963.3 hPa | - | - | - | - |
| 1778036595 | 18.33° C | 57% | 964.1 hPa | - | - | - | - |
| 1778035695 | 18.33° C | 56% | 964.2 hPa | - | - | - | - |
| 1778034795 | 17.78° C | 55% | 963.4 hPa | - | - | - | - |
| 1778033895 | 17.78° C | 55% | 963.3 hPa | - | - | - | - |
| 1778032994 | 18.33° C | 52% | 964.2 hPa | - | - | - | - |
| 1778032094 | 19.44° C | 46% | 964.1 hPa | - | - | - | - |
| 1778031194 | 20° C | 43% | 964 hPa | - | - | - | - |
* Rain since midnight (hover to see other rain measurements)
** Current wind speed in m/s (hover to see current wind gust speed)